N0YFE Weather Reports


time (UTC)temp
F
wind
direction
speed
knots
gust
knots
rain 1hr
in
rain 24hr
in
rain mn
in
humidity
%
barometer
mb
20260906191551 0 319 5.2 8.7 0.00 0.03 0.00 1016.9
20260906190151 0 321 4.3 7.8 0.00 0.03 0.00 1016.9
20260906184548 0 273 4.3 11.3 0.00 0.03 0.00 1016.8
20260906183048 0 8 2.6 7.8 0.00 0.03 0.00 1016.9
20260906181545 0 32 3.5 7.8 0.00 0.03 0.00 1017.1
20260906180033 0 314 4.3 8.7 0.00 0.03 0.00 1017.1
20260906174530 0 298 4.3 7.8 0.00 0.03 0.00 1017.0
20260906173024 0 307 4.3 9.6 0.00 0.03 0.00 1017.2
20260906171520 0 249 4.3 9.6 0.00 0.03 0.00 1017.3
20260906170018 0 333 3.5 8.7 0.00 0.03 0.00 1017.7
20260906164520 0 305 5.2 8.7 0.00 0.03 0.00 1017.5
20260906163019 0 271 3.5 7.8 0.00 0.03 0.00 1017.7
20260906161516 0 250 3.5 7.8 0.00 0.03 0.00 1017.9
20260906160016 0 324 3.5 7.8 0.00 0.04 0.00 1018.1
20260906154515 0 279 4.3 9.6 0.00 0.04 0.00 1017.9
20260906153022 0 305 2.6 7.8 0.00 0.04 0.00 1018.1
20260906151507 0 311 5.2 9.6 0.00 0.04 0.00 1018.2
20260906150003 0 280 2.6 7.0 0.00 0.05 0.00 1018.0
20260906144559 0 259 5.2 8.7 0.00 0.05 0.00 1017.9
20260906143058 0 297 3.5 8.7 0.00 0.05 0.00 1017.9
20260906141551 0 291 3.5 7.0 0.00 0.05 0.00 1017.8
20260906140051 0 283 2.6 6.1 0.00 0.05 0.00 1017.9
20260906134542 0 302 3.5 7.8 0.00 0.06 0.00 1017.7
20260906133043 0 319 2.6 5.2 0.00 0.06 0.00 1017.6
20260906131534 0 261 2.6 4.3 0.00 0.06 0.00 1017.6
20260906130031 0 292 2.6 5.2 0.00 0.06 0.00 1017.6
20260906124626 0 252 1.7 3.5 0.00 0.06 0.00 1017.5
20260906123031 0 285 1.7 4.3 0.00 0.06 0.00 1017.4
20260906121516 0 298 0.0 1.7 0.00 0.06 0.00 1017.4
20260906120012 0 247 0.0 0.0 0.00 0.08 0.00 1017.4
20260906114506 0 252 0.0 1.7 0.00 0.08 0.00 1017.2
20260906113003 0 252 0.0 1.7 0.00 0.08 0.00 1017.0
20260906111558 0 250 0.0 0.0 0.00 0.08 0.00 1017.1
20260906110054 0 250 0.0 0.0 0.00 0.08 0.00 1016.8
20260906104549 0 250 0.0 1.7 0.00 0.09 0.00 1016.8
20260906103054 0 250 0.0 0.0 0.00 0.09 0.00 1016.7
20260906101541 0 250 0.0 0.0 0.00 0.09 0.00 1016.7
20260906100037 0 249 0.0 0.9 0.00 0.09 0.00 1016.6
20260906094532 0 249 0.0 0.9 0.00 0.10 0.00 1016.3
20260906093027 0 250 0.0 1.7 0.00 0.10 0.00 1016.0
20260906091523 0 249 0.0 2.6 0.00 0.10 0.00 1016.0
20260906090020 0 265 0.0 2.6 0.00 0.11 0.00 1016.0
20260906084514 0 254 0.0 2.6 0.00 0.11 0.00 1015.9
20260906083011 0 234 0.0 2.6 0.00 0.11 0.00 1016.0
20260906081506 0 263 0.0 2.6 0.00 0.11 0.00 1016.0
20260906080002 0 269 0.0 2.6 0.00 0.12 0.00 1016.0
20260906074558 0 238 0.0 3.5 0.00 0.12 0.00 1016.0
20260906073055 0 263 0.0 2.6 0.00 0.12 0.00 1016.0
20260906071549 0 248 0.0 0.9 0.00 0.12 0.00 1016.2
20260906070049 0 254 0.0 0.9 0.00 0.12 0.00 1016.3
20260906064548 0 254 0.0 1.7 0.00 0.12 0.00 1016.3
20260906063047 0 257 0.0 2.6 0.00 0.12 0.00 1016.3
20260906061547 0 309 0.0 0.9 0.00 0.12 0.00 1016.3
20260906060043 0 309 0.0 0.9 0.00 0.12 0.00 1016.3
20260906054539 0 309 0.0 0.0 0.00 0.13 0.00 1016.4
20260906053033 0 309 0.0 0.0 0.00 0.13 0.00 1016.3
20260906051529 0 310 0.0 1.7 0.00 0.13 0.00 1016.3
20260906050027 0 309 0.0 0.9 0.00 0.15 0.13 1016.3
20260906044520 0 309 0.0 0.0 0.00 0.15 0.13 1016.4
20260906043022 0 309 0.0 0.9 0.00 0.15 0.13 1016.6
20260906041512 0 309 0.0 0.0 0.00 0.15 0.13 1016.5
20260906040007 0 309 0.0 0.0 0.00 0.16 0.13 1016.5
20260906034502 0 309 0.0 0.0 0.00 0.16 0.13 1016.6
20260906033058 0 309 0.0 0.0 0.00 0.16 0.13 1016.6
20260906031555 0 309 0.0 0.0 0.00 0.16 0.13 1016.7
20260906030050 0 309 0.0 1.7 0.00 0.16 0.13 1016.7
20260906024544 0 307 0.0 1.7 0.00 0.17 0.13 1016.8
20260906023045 0 242 0.0 2.6 0.00 0.17 0.13 1016.5
20260906021543 0 271 0.9 2.6 0.00 0.17 0.13 1016.3
20260906020031 0 265 0.0 1.7 0.00 0.17 0.13 1015.7
20260906014528 0 264 0.0 2.6 0.00 0.18 0.13 1015.3
20260906013034 0 276 0.0 3.5 0.00 0.18 0.13 1014.8
20260906011520 0 262 0.9 5.2 0.00 0.18 0.13 1014.5
20260906010018 0 257 1.7 6.1 0.00 0.20 0.13 1014.4
20260906004513 0 262 0.9 4.3 0.00 0.20 0.13 100 1014.0
20260906003015 0 251 2.6 7.8 0.00 0.20 0.13 1013.7
20260906001506 0 255 4.3 10.4 0.00 0.20 0.13 66 1013.4
20260906000059 0 250 2.6 6.1 0.00 0.20 0.13 1013.7
20260905234556 0 217 2.6 5.2 0.00 0.22 0.13 100 1013.9
20260905233051 0 245 2.6 5.2 0.01 0.22 0.13 100 1013.6
20260905231548 82 237 1.7 5.2 0.01 0.22 0.13 100 1013.5
20260905230043 0 271 4.3 9.6 0.01 0.22 0.13 1013.2
20260905224540 0 266 4.3 8.7 0.01 0.23 0.13 100 1013.4
20260905223033 83 259 4.3 7.8 0.01 0.22 0.12 63 1013.2
20260905221529 83 216 3.5 7.8 0.01 0.22 0.12 1013.5
20260905220027 83 282 3.5 9.6 0.01 0.22 0.12 64 1013.8
20260905214523 0 249 1.7 9.6 0.01 0.23 0.12 100 1013.4
20260905213020 83 238 2.6 9.6 0.00 0.22 0.11 1013.5
20260905211516 82 250 4.3 8.7 0.00 0.22 0.11 66 1013.9
20260905210012 0 239 3.5 7.8 0.00 0.24 0.11 1014.4
20260905204511 0 283 0.9 6.1 0.00 0.24 0.11 66 1014.6
20260905203007 0 217 0.9 6.1 0.00 0.24 0.11 1014.9
20260905201503 0 184 0.0 5.2 0.01 0.24 0.11 1015.1
20260905194554 0 272 0.9 6.1 0.01 0.25 0.11 1015.7
20260905193051 0 277 1.7 5.2 0.01 0.25 0.11 1015.6